Tracking 19562 objects as of 23-Mar-2019
HD Live streaming from Space Station
objects crossing your sky now

DMSP 5D-2 F14 (USA 131)

Track DMSP 5D-2 F14 (USA 131) now!
10-day predictions
DMSP 5D-2 F14 (USA 131) is classified as:


NORAD ID: 24753
Int'l Code: 1997-012A
Perigee: 839.7 km
Apogee: 853.5 km
Inclination: 99.0 °
Period: 101.7 minutes
Semi major axis: 7217 km
RCS: Unknown
Launch date: April 4, 1997
Source: United States (US)
Launch site: AIR FORCE WESTERN TEST RANGE (AFWTR)

Near-polar orbits; investigate Earth's environment.
aabbcc
Your satellite tracking list
Your tracking list is empty




NASA's NSSDC Master Catalog

Two Line Element Set (TLE):
1 24753U 97012A   19081.54341417  .00000015  00000-0  31091-4 0  9992
2 24753  99.0332  87.2445 0009562  53.5675 306.6378 14.15826653134374
Source of the keplerian elements: McCants